Charleston, WV

3:58 PM EST on January 20, 2017 (GMT -0500)
Yeager Airport

Weather History for KCRW - May, 2013

Change the Weather History Date:

Saturday, May 4, 2013

  Actual Average Record
Temperature  
Mean Temperature 62 °F 61 °F  
Max Temperature 73 °F 73 °F 91 °F (1919)
Min Temperature 50 °F 49 °F 29 °F (1986)
Degree Days  
Heating Degree Days 3 5  
Month to date heating degree days 5 23  
Since 1 July heating degree days 4421 4371  
Cooling Degree Days 0 1  
Month to date cooling degree days 6 4  
Year to date cooling degree days 45 36  
Growing Degree Days 12 (Base 50)    
Moisture  
Dew Point 38 °F    
Average Humidity 43    
Maximum Humidity 59    
Minimum Humidity 27    
Precipitation  
Precipitation 0.00 in 0.15 in 1.95 in (2009)
Month to date precipitation 0.00 0.55  
Year to date precipitation 10.87 13.89  
Snow  
Snow 0.00 in - - ()
Month to date snowfall 0.0  
Since 1 September snowfall 25.3  
Snow Depth 0.00 in    
Sea Level Pressure  
Sea Level Pressure 30.05 in    
Wind  
Wind Speed 8 mph (ESE)    
Max Wind Speed 18 mph    
Max Gust Speed 26 mph    
Visibility 10 miles    
Events      
T = Trace of Precipitation, MM = Missing Value Source: NWS Daily Summary

Daily Weather History Graph

Daily Weather History Graph

Search for Another Location

Airport or City:

Trip Planner

Search our weather history database for the weather conditions in past years. The results will help you decide how hot, cold, wet, or windy it might be!

Date:

Astronomy

May. 04, 2013 Rise Set
Actual Time 6:25 AM EDT 8:20 PM EDT
Civil Twilight 5:57 AM EDT 8:49 PM EDT
Nautical Twilight 5:22 AM EDT 9:24 PM EDT
Astronomical Twilight 4:44 AM EDT 10:02 PM EDT
Moon 3:19 AM EDT (5/4) 3:21 PM EDT (5/4)
Length of Visible Light 14h 52m
Length of Day
13h 55m
Waning Crescent, 27% of the Moon is Illuminated
May 4
Waning Crescent
May 9
New
May 18
First Quarter
May 25
Full
May 31
Last Quarter

Hourly Weather History & Observations

Time (EDT) Temp. Dew Point Humidity Pressure Visibility Wind Dir Wind Speed Gust Speed Precip Events Conditions
12:54 AM 62.1 °F 41.0 °F 46% 30.09 in 10.0 mi ESE 12.7 mph 17.3 mph N/A   Clear
1:54 AM 61.0 °F 37.0 °F 41% 30.07 in 10.0 mi ESE 10.4 mph 18.4 mph N/A   Clear
2:54 AM 59.0 °F 35.1 °F 41% 30.06 in 10.0 mi East 9.2 mph - N/A   Clear
3:54 AM 57.0 °F 32.0 °F 39% 30.06 in 10.0 mi ESE 6.9 mph - N/A   Clear
4:54 AM 55.0 °F 30.9 °F 40% 30.06 in 10.0 mi East 9.2 mph - N/A   Clear
5:54 AM 52.0 °F 32.0 °F 47% 30.09 in 10.0 mi ESE 3.5 mph - N/A   Clear
6:54 AM 51.1 °F 33.1 °F 50% 30.09 in 10.0 mi Calm Calm - N/A   Partly Cloudy
7:54 AM 52.0 °F 37.0 °F 57% 30.09 in 10.0 mi Calm Calm - N/A   Partly Cloudy
8:54 AM 55.9 °F 39.0 °F 53% 30.09 in 10.0 mi Variable 3.5 mph - N/A   Clear
9:54 AM 60.1 °F 39.9 °F 47% 30.08 in 10.0 mi ESE 5.8 mph - N/A   Clear
10:54 AM 64.0 °F 41.0 °F 43% 30.07 in 10.0 mi ESE 15.0 mph 24.2 mph N/A   Clear
11:54 AM 66.0 °F 42.1 °F 42% 30.06 in 10.0 mi SSE 9.2 mph - N/A   Partly Cloudy
12:54 PM 68.0 °F 43.0 °F 40% 30.04 in 10.0 mi SE 9.2 mph 21.9 mph N/A   Partly Cloudy
1:54 PM 69.1 °F 43.0 °F 39% 30.04 in 10.0 mi SE 9.2 mph 18.4 mph N/A   Scattered Clouds
2:54 PM 72.0 °F 43.0 °F 35% 30.01 in 10.0 mi East 10.4 mph 21.9 mph N/A   Scattered Clouds
3:54 PM 71.1 °F 39.0 °F 31% 29.99 in 10.0 mi East 13.8 mph 20.7 mph N/A   Partly Cloudy
4:54 PM 73.0 °F 37.0 °F 27% 29.99 in 10.0 mi SE 12.7 mph 20.7 mph N/A   Partly Cloudy
5:54 PM 71.1 °F 35.1 °F 27% 29.98 in 10.0 mi East 9.2 mph - N/A   Partly Cloudy
6:54 PM 71.1 °F 35.1 °F 27% 29.98 in 10.0 mi ESE 8.1 mph - N/A   Scattered Clouds
7:54 PM 69.1 °F 36.0 °F 30% 29.99 in 10.0 mi ESE 6.9 mph - N/A   Partly Cloudy
8:54 PM 66.0 °F 36.0 °F 33% 30.01 in 10.0 mi ESE 8.1 mph 17.3 mph N/A   Partly Cloudy
9:54 PM 63.0 °F 39.0 °F 41% 30.04 in 10.0 mi ESE 9.2 mph - N/A   Partly Cloudy
10:54 PM 61.0 °F 39.9 °F 46% 30.05 in 10.0 mi SE 13.8 mph 19.6 mph N/A   Clear
11:54 PM 59.0 °F 39.9 °F 49% 30.06 in 10.0 mi SE 12.7 mph 16.1 mph N/A   Clear